Location: Artiguedieu
(43.5000°N, 0.5454°E)
Time: 06:35:54
(UTC+00:00)

Meteor 2-6 Rocket - Pass Details

Date: 06 December 2020
Orbit: 806 x 914 km, 81.3° (Epoch: 19 January)

Event Time Altitude Azimuth Distance (km) Brightness Sun altitude
Exits shadow 05:16:18 43° 293° (WNW) 1,144 4.4 -21.0°
Maximum altitude 05:17:08 46° 267° (W) 1,092 4.3 -20.9°
Drops below altitude 10° 05:22:22 10° 195° (SSW) 2,443 6.6 -20.0°
Sets 05:24:53 0° 189° (S) 3,389 7.4 -19.5°
